| time (UTC) | temp C | wind direction | speed KPH | gust KPH | rain 1hr cm | rain 24hr cm | rain mn cm | humidity % | barometer mb |
| 20260502170334 | 14 | 345 | 6.4 | 17.7 | 0.00 | 0.00 | 0.00 | 50 | 922.3 |
| 20260502164331 | 14 | 324 | 8.0 | 20.9 | 0.00 | 0.00 | 0.00 | 47 | 918.1 |
| 20260502163830 | 14 | 1 | 11.3 | 20.9 | 0.00 | 0.00 | 0.00 | 47 | 702.7 |
| 20260502163329 | 13 | 319 | 6.4 | 20.9 | 0.00 | 0.00 | 0.00 | 51 | 922.3 |
| 20260502162828 | 13 | 294 | 6.4 | 20.9 | 0.00 | 0.00 | 0.00 | 47 | 861.0 |
| 20260502162327 | 13 | 14 | 6.4 | 20.9 | 0.00 | 0.00 | 0.00 | 49 | 686.2 |
| 20260502161827 | 13 | 331 | 9.7 | 20.9 | 0.00 | 0.00 | 0.00 | 49 | 954.7 |
| 20260502161326 | 13 | 19 | 8.0 | 20.9 | 0.00 | 0.00 | 0.00 | 51 | 797.0 |
| 20260502160826 | 13 | 325 | 1.6 | 20.9 | 0.00 | 0.00 | 0.00 | 51 | 876.6 |
| 20260502160325 | 13 | 0 | 4.8 | 20.9 | 0.00 | 0.00 | 0.00 | 50 | 600.2 |
| 20260502152319 | 12 | 3 | 8.0 | 19.3 | 0.00 | 0.00 | 0.00 | 54 | 982.5 |
| 20260502151304 | 12 | 332 | 6.4 | 17.7 | 0.00 | 0.00 | 0.00 | 56 | 981.8 |
| 20260502150804 | 12 | 352 | 8.0 | 17.7 | 0.00 | 0.00 | 0.00 | 54 | 944.2 |
| 20260502150303 | 12 | 2 | 8.0 | 17.7 | 0.00 | 0.00 | 0.00 | 56 | 701.5 |
| 20260502130633 | 8 | 335 | 3.2 | 17.7 | 0.00 | 0.00 | 0.00 | 70 | 1134.3 |
| 20260502130133 | 8 | 336 | 3.2 | 17.7 | 0.00 | 0.00 | 0.00 | 71 | 1098.6 |
| 20260502123630 | 6 | 290 | 0.0 | 17.7 | 0.00 | 0.00 | 0.00 | 75 | 1033.2 |
| 20260502123130 | 6 | 290 | 1.6 | 17.7 | 0.00 | 0.00 | 0.00 | 75 | 1033.5 |
| 20260502122114 | 6 | 290 | 0.0 | 17.7 | 0.00 | 0.00 | 0.00 | 77 | 1034.0 |
| 20260502121614 | 6 | 290 | 1.6 | 17.7 | 0.00 | 0.00 | 0.00 | 76 | 1033.6 |
| 20260502121113 | 6 | 290 | 0.0 | 17.7 | 0.00 | 0.00 | 0.00 | 78 | 1034.1 |
| 20260502120612 | 5 | 290 | 1.6 | 17.7 | 0.00 | 0.00 | 0.00 | 79 | 1035.3 |
| 20260502120111 | 5 | 291 | 0.0 | 17.7 | 0.00 | 0.00 | 0.00 | 81 | 1036.1 |
| 20260502115611 | 5 | 291 | 0.0 | 17.7 | 0.00 | 0.00 | 0.00 | 82 | 1035.6 |
| 20260502115110 | 5 | 291 | 0.0 | 17.7 | 0.00 | 0.00 | 0.00 | 81 | 1035.0 |
| 20260502114053 | 5 | 291 | 0.0 | 17.7 | 0.00 | 0.00 | 0.00 | 82 | 1032.8 |
| 20260502113553 | 5 | 291 | 0.0 | 17.7 | 0.00 | 0.00 | 0.00 | 81 | 1032.0 |
| 20260502113053 | 5 | 291 | 0.0 | 17.7 | 0.00 | 0.00 | 0.00 | 81 | 1031.8 |
| 20260502112553 | 5 | 291 | 0.0 | 17.7 | 0.00 | 0.00 | 0.00 | 81 | 1033.8 |
| 20260502111536 | 5 | 291 | 0.0 | 17.7 | 0.00 | 0.00 | 0.00 | 81 | 1035.1 |
| 20260502110520 | 5 | 291 | 0.0 | 17.7 | 0.00 | 0.00 | 0.00 | 81 | 1034.2 |
| 20260502110020 | 5 | 291 | 0.0 | 17.7 | 0.00 | 0.00 | 0.00 | 81 | 1033.3 |
| 20260502105519 | 6 | 291 | 0.0 | 17.7 | 0.00 | 0.00 | 0.00 | 81 | 1031.8 |
| 20260502104503 | 6 | 292 | 0.0 | 17.7 | 0.00 | 0.00 | 0.00 | 80 | 1033.5 |
| 20260502104003 | 6 | 292 | 0.0 | 17.7 | 0.00 | 0.00 | 0.00 | 80 | 1034.4 |
| 20260502103503 | 6 | 292 | 0.0 | 17.7 | 0.00 | 0.00 | 0.00 | 79 | 1034.4 |
| 20260502103003 | 6 | 292 | 0.0 | 17.7 | 0.00 | 0.00 | 0.00 | 79 | 1033.6 |
| 20260502102503 | 6 | 292 | 0.0 | 17.7 | 0.00 | 0.00 | 0.00 | 79 | 1033.1 |
| 20260502102003 | 6 | 292 | 0.0 | 17.7 | 0.00 | 0.00 | 0.00 | 79 | 1033.8 |
| 20260502101503 | 6 | 292 | 0.0 | 17.7 | 0.00 | 0.00 | 0.00 | 78 | 1034.3 |
| 20260502101003 | 6 | 292 | 0.0 | 17.7 | 0.00 | 0.00 | 0.00 | 78 | 1034.7 |
| 20260502091414 | 6 | 291 | 0.0 | 17.7 | 0.00 | 0.00 | 0.00 | 78 | 1033.7 |
| 20260502090913 | 6 | 291 | 0.0 | 17.7 | 0.00 | 0.00 | 0.00 | 78 | 1033.6 |
| 20260502071313 | 7 | 287 | 0.0 | 17.7 | 0.00 | 0.00 | 0.00 | 79 | 1022.2 |
| 20260502070812 | 7 | 287 | 0.0 | 17.7 | 0.00 | 0.00 | 0.00 | 80 | 1022.2 |
| 20260502065756 | 7 | 287 | 0.0 | 17.7 | 0.00 | 0.00 | 0.00 | 80 | 1020.6 |
| 20260502065255 | 7 | 287 | 0.0 | 17.7 | 0.00 | 0.00 | 0.00 | 80 | 1020.4 |
| 20260502064754 | 7 | 287 | 0.0 | 17.7 | 0.00 | 0.00 | 0.00 | 80 | 1020.3 |
| 20260502064253 | 7 | 287 | 0.0 | 17.7 | 0.00 | 0.00 | 0.00 | 80 | 1020.6 |
| 20260502063753 | 8 | 287 | 0.0 | 17.7 | 0.00 | 0.00 | 0.00 | 80 | 1020.4 |
| 20260502063253 | 8 | 287 | 0.0 | 17.7 | 0.00 | 0.00 | 0.00 | 80 | 1020.5 |
| 20260502062753 | 8 | 287 | 0.0 | 17.7 | 0.00 | 0.00 | 0.00 | 80 | 1020.5 |
| 20260502062253 | 8 | 287 | 0.0 | 17.7 | 0.00 | 0.00 | 0.00 | 80 | 1020.4 |
| 20260502061753 | 8 | 287 | 0.0 | 17.7 | 0.00 | 0.00 | 0.00 | 80 | 1020.5 |
| 20260502060221 | 8 | 287 | 0.0 | 17.7 | 0.00 | 0.00 | 0.00 | 78 | 1019.8 |
| 20260502055720 | 8 | 287 | 0.0 | 17.7 | 0.00 | 0.00 | 0.00 | 78 | 1019.2 |
| 20260502054704 | 8 | 287 | 0.0 | 17.7 | 0.00 | 0.00 | 0.00 | 78 | 1019.1 |
| 20260502054204 | 8 | 287 | 0.0 | 17.7 | 0.00 | 0.00 | 0.00 | 77 | 1020.0 |
| 20260502053703 | 8 | 287 | 0.0 | 17.7 | 0.00 | 0.00 | 0.00 | 77 | 1020.6 |
| 20260502053203 | 8 | 287 | 0.0 | 17.7 | 0.00 | 0.00 | 0.00 | 77 | 1020.8 |
| 20260502052703 | 8 | 287 | 0.0 | 17.7 | 0.00 | 0.00 | 0.00 | 78 | 1020.9 |
| 20260502051646 | 9 | 287 | 0.0 | 17.7 | 0.00 | 0.00 | 0.00 | 77 | 1020.7 |
| 20260502050629 | 9 | 287 | 0.0 | 17.7 | 0.00 | 0.00 | 0.00 | 76 | 1020.1 |
| 20260502050129 | 9 | 287 | 0.0 | 17.7 | 0.00 | 0.00 | 0.00 | 75 | 1020.6 |
| 20260502045629 | 9 | 287 | 0.0 | 17.7 | 0.00 | 0.00 | 0.00 | 74 | 1020.8 |
| 20260502045129 | 10 | 287 | 0.0 | 17.7 | 0.00 | 0.00 | 0.00 | 74 | 1020.2 |
| 20260502044114 | 10 | 287 | 0.0 | 17.7 | 0.00 | 0.00 | 0.00 | 76 | 1018.3 |
| 20260502043613 | 10 | 287 | 0.0 | 17.7 | 0.00 | 0.00 | 0.00 | 74 | 1018.4 |
| 20260502043112 | 10 | 287 | 0.0 | 17.7 | 0.00 | 0.00 | 0.00 | 73 | 1019.2 |
| 20260502042612 | 10 | 287 | 0.0 | 17.7 | 0.00 | 0.00 | 0.00 | 72 | 1019.3 |
| 20260502042112 | 10 | 287 | 0.0 | 17.7 | 0.00 | 0.00 | 0.00 | 72 | 1019.1 |
| 20260502041611 | 10 | 287 | 0.0 | 17.7 | 0.00 | 0.00 | 0.00 | 72 | 1019.2 |
| 20260502040555 | 11 | 287 | 0.0 | 17.7 | 0.00 | 0.00 | 0.00 | 70 | 1020.1 |
| 20260502040054 | 11 | 287 | 0.0 | 17.7 | 0.00 | 0.00 | 0.00 | 69 | 1019.6 |
| 20260502035553 | 11 | 287 | 0.0 | 17.7 | 0.00 | 0.00 | 0.00 | 69 | 1019.5 |
| 20260502035053 | 11 | 287 | 0.0 | 17.7 | 0.00 | 0.00 | 0.00 | 68 | 1019.2 |
| 20260502034552 | 11 | 287 | 0.0 | 17.7 | 0.00 | 0.00 | 0.00 | 68 | 1018.8 |
| 20260502034052 | 11 | 287 | 0.0 | 17.7 | 0.00 | 0.00 | 0.00 | 67 | 1019.7 |
| 20260502032520 | 12 | 287 | 0.0 | 17.7 | 0.00 | 0.00 | 0.00 | 66 | 1019.3 |
| 20260502032019 | 12 | 287 | 0.0 | 17.7 | 0.00 | 0.00 | 0.00 | 67 | 1019.4 |
| 20260502031003 | 12 | 287 | 0.0 | 17.7 | 0.00 | 0.00 | 0.00 | 64 | 1019.0 |
| 20260502030503 | 12 | 287 | 0.0 | 17.7 | 0.00 | 0.00 | 0.00 | 62 | 1018.8 |
| 20260502030003 | 12 | 287 | 0.0 | 17.7 | 0.00 | 0.00 | 0.00 | 61 | 1018.4 |
| 20260502025502 | 13 | 287 | 0.0 | 17.7 | 0.00 | 0.00 | 0.00 | 61 | 1018.1 |
| 20260502025002 | 13 | 287 | 0.0 | 17.7 | 0.00 | 0.00 | 0.00 | 59 | 1017.5 |
| 20260502024502 | 13 | 287 | 0.0 | 17.7 | 0.00 | 0.00 | 0.00 | 59 | 1017.1 |
| 20260502024002 | 13 | 287 | 0.0 | 17.7 | 0.00 | 0.00 | 0.00 | 59 | 1017.3 |
| 20260502023502 | 13 | 287 | 0.0 | 17.7 | 0.00 | 0.00 | 0.00 | 57 | 1017.8 |
| 20260502023002 | 14 | 287 | 0.0 | 17.7 | 0.00 | 0.00 | 0.00 | 58 | 1018.6 |
| 20260502022501 | 14 | 287 | 0.0 | 17.7 | 0.00 | 0.00 | 0.00 | 54 | 1018.8 |
| 20260502022001 | 14 | 287 | 0.0 | 17.7 | 0.00 | 0.00 | 0.00 | 53 | 1019.5 |
| 20260502021501 | 14 | 287 | 0.0 | 17.7 | 0.00 | 0.00 | 0.00 | 51 | 1019.8 |
| 20260502021001 | 15 | 287 | 0.0 | 17.7 | 0.00 | 0.00 | 0.00 | 51 | 1019.6 |
| 20260502020501 | 15 | 287 | 0.0 | 17.7 | 0.00 | 0.00 | 0.00 | 51 | 1019.7 |
| 20260502020000 | 15 | 287 | 0.0 | 17.7 | 0.00 | 0.00 | 0.00 | 51 | 1019.5 |
| 20260502015459 | 15 | 287 | 0.0 | 17.7 | 0.00 | 0.00 | 0.00 | 50 | 1019.3 |
| 20260502014959 | 15 | 287 | 0.0 | 17.7 | 0.00 | 0.00 | 0.00 | 50 | 1019.3 |
| 20260502014458 | 15 | 287 | 0.0 | 17.7 | 0.00 | 0.00 | 0.00 | 50 | 1019.6 |
| 20260502013958 | 15 | 287 | 0.0 | 17.7 | 0.00 | 0.00 | 0.00 | 49 | 1020.7 |
| 20260502013457 | 15 | 287 | 0.0 | 17.7 | 0.00 | 0.00 | 0.00 | 49 | 1021.9 |
| 20260502012956 | 16 | 288 | 0.0 | 17.7 | 0.00 | 0.00 | 0.00 | 49 | 1024.5 |
| 20260502012455 | 16 | 291 | 0.0 | 17.7 | 0.00 | 0.00 | 0.00 | 49 | 1028.0 |
| 20260502011438 | 16 | 291 | 0.0 | 17.7 | 0.00 | 0.00 | 0.00 | 48 | 1029.4 |
| 20260502010937 | 16 | 291 | 0.0 | 17.7 | 0.00 | 0.00 | 0.00 | 48 | 1030.5 |
| 20260502010437 | 16 | 291 | 0.0 | 17.7 | 0.00 | 0.00 | 0.00 | 49 | 1031.4 |
| 20260502005420 | 17 | 291 | 0.0 | 17.7 | 0.00 | 0.00 | 0.00 | 45 | 1030.6 |
| 20260502004919 | 17 | 291 | 0.0 | 17.7 | 0.00 | 0.00 | 0.00 | 44 | 1031.5 |
| 20260502004418 | 17 | 291 | 0.0 | 17.7 | 0.00 | 0.00 | 0.00 | 46 | 1031.6 |
| 20260502003402 | 17 | 291 | 0.0 | 17.7 | 0.00 | 0.00 | 0.00 | 43 | 1034.5 |
| 20260502002902 | 17 | 291 | 0.0 | 17.7 | 0.00 | 0.00 | 0.00 | 42 | 1037.4 |
| 20260502001847 | 17 | 292 | 0.0 | 17.7 | 0.00 | 0.00 | 0.00 | 42 | 1055.9 |
| 20260502001346 | 17 | 300 | 1.6 | 17.7 | 0.00 | 0.00 | 0.00 | 41 | 1077.7 |
| 20260502000846 | 17 | 309 | 0.0 | 17.7 | 0.00 | 0.00 | 0.00 | 42 | 1085.9 |
| 20260502000347 | 17 | 309 | 0.0 | 17.7 | 0.00 | 0.00 | 0.00 | 41 | 1085.3 |
| 20260501235845 | 17 | 309 | 0.0 | 17.7 | 0.00 | 0.00 | 0.00 | 41 | 1084.5 |
| 20260501235344 | 17 | 309 | 0.0 | 17.7 | 0.00 | 0.00 | 0.00 | 39 | 1084.2 |
| 20260501234327 | 17 | 310 | 0.0 | 17.7 | 0.00 | 0.00 | 0.00 | 39 | 1077.1 |
| 20260501233826 | 17 | 310 | 0.0 | 17.7 | 0.00 | 0.00 | 0.00 | 37 | 1068.4 |
| 20260501233326 | 17 | 293 | 4.8 | 17.7 | 0.00 | 0.00 | 0.00 | 37 | 1051.9 |
| 20260501232825 | 18 | 297 | 4.8 | 17.7 | 0.00 | 0.00 | 0.00 | 37 | 1069.6 |
| 20260501232324 | 18 | 316 | 4.8 | 17.7 | 0.00 | 0.00 | 0.00 | 37 | 1074.7 |
| 20260501231824 | 18 | 310 | 0.0 | 17.7 | 0.00 | 0.00 | 0.00 | 38 | 1087.1 |
| 20260501231324 | 18 | 336 | 0.0 | 17.7 | 0.00 | 0.00 | 0.00 | 40 | 1087.2 |
| 20260501230824 | 18 | 19 | 1.6 | 17.7 | 0.00 | 0.00 | 0.00 | 40 | 998.1 |
| 20260501225808 | 17 | 325 | 1.6 | 17.7 | 0.00 | 0.00 | 0.00 | 39 | 1126.1 |
| 20260501225307 | 17 | 343 | 1.6 | 17.7 | 0.00 | 0.00 | 0.00 | 39 | 1124.9 |
| 20260501224251 | 18 | 336 | 3.2 | 17.7 | 0.00 | 0.00 | 0.00 | 37 | 1066.0 |
| 20260501223750 | 18 | 276 | 9.7 | 17.7 | 0.00 | 0.00 | 0.00 | 37 | 1035.6 |
| 20260501223249 | 18 | 306 | 3.2 | 17.7 | 0.00 | 0.00 | 0.00 | 37 | 1088.4 |
| 20260501222748 | 18 | 314 | 3.2 | 17.7 | 0.00 | 0.00 | 0.00 | 37 | 1103.6 |
| 20260501222247 | 18 | 301 | 4.8 | 19.3 | 0.00 | 0.00 | 0.00 | 37 | 1071.8 |
| 20260501221746 | 18 | 323 | 9.7 | 19.3 | 0.00 | 0.00 | 0.00 | 37 | 1099.2 |
| 20260501220730 | 18 | 352 | 8.0 | 19.3 | 0.00 | 0.00 | 0.00 | 36 | 1068.9 |
| 20260501220229 | 18 | 301 | 3.2 | 19.3 | 0.00 | 0.00 | 0.00 | 38 | 1002.4 |
| 20260501215213 | 18 | 329 | 4.8 | 19.3 | 0.00 | 0.00 | 0.00 | 38 | 1026.8 |
| 20260501214713 | 18 | 261 | 4.8 | 19.3 | 0.00 | 0.00 | 0.00 | 37 | 1003.2 |
| 20260501214212 | 18 | 300 | 6.4 | 19.3 | 0.00 | 0.00 | 0.00 | 37 | 1043.6 |
| 20260501213711 | 18 | 316 | 1.6 | 19.3 | 0.00 | 0.00 | 0.00 | 38 | 1039.7 |
| 20260501212656 | 18 | 286 | 8.0 | 17.7 | 0.00 | 0.00 | 0.00 | 35 | 1009.6 |
| 20260501212155 | 18 | 315 | 8.0 | 17.7 | 0.00 | 0.00 | 0.00 | 35 | 1005.0 |
| 20260501211654 | 18 | 255 | 6.4 | 17.7 | 0.00 | 0.00 | 0.00 | 36 | 974.0 |
| 20260501211153 | 19 | 277 | 8.0 | 17.7 | 0.00 | 0.00 | 0.00 | 36 | 996.0 |
| 20260501210652 | 18 | 257 | 6.4 | 17.7 | 0.00 | 0.00 | 0.00 | 36 | 1025.3 |
| 20260501210151 | 18 | 308 | 3.2 | 17.7 | 0.00 | 0.00 | 0.00 | 36 | 1072.0 |
| 20260501205650 | 18 | 289 | 4.8 | 17.7 | 0.00 | 0.00 | 0.00 | 38 | 1067.4 |
| 20260501204634 | 18 | 304 | 8.0 | 17.7 | 0.00 | 0.00 | 0.00 | 37 | 1049.9 |
| 20260501204133 | 18 | 290 | 3.2 | 17.7 | 0.00 | 0.00 | 0.00 | 37 | 1048.9 |
| 20260501203632 | 18 | 321 | 1.6 | 17.7 | 0.00 | 0.00 | 0.00 | 36 | 1057.8 |
| 20260501202615 | 18 | 351 | 1.6 | 17.7 | 0.00 | 0.00 | 0.00 | 36 | 998.1 |
| 20260501202114 | 17 | 313 | 3.2 | 17.7 | 0.00 | 0.00 | 0.00 | 36 | 900.6 |
| 20260501201613 | 17 | 289 | 0.0 | 17.7 | 0.00 | 0.00 | 0.00 | 36 | 969.4 |
| 20260501200557 | 17 | 0 | 6.4 | 17.7 | 0.00 | 0.00 | 0.00 | 36 | 789.6 |
| 20260501200057 | 17 | 311 | 8.0 | 17.7 | 0.00 | 0.00 | 0.00 | 34 | 995.3 |
| 20260501195557 | 18 | 303 | 9.7 | 17.7 | 0.00 | 0.00 | 0.00 | 34 | 881.5 |
| 20260501195057 | 18 | 37 | 4.8 | 17.7 | 0.00 | 0.00 | 0.00 | 37 | 656.8 |
| 20260501194041 | 18 | 355 | 8.0 | 17.7 | 0.00 | 0.00 | 0.00 | 37 | 963.5 |
| 20260501193540 | 18 | 344 | 6.4 | 17.7 | 0.00 | 0.00 | 0.00 | 36 | 951.3 |
| 20260501193039 | 18 | 345 | 3.2 | 17.7 | 0.00 | 0.00 | 0.00 | 34 | 760.5 |
| 20260501192023 | 17 | 270 | 6.4 | 19.3 | 0.00 | 0.00 | 0.00 | 35 | 996.6 |
| 20260501191523 | 17 | 295 | 8.0 | 17.7 | 0.00 | 0.00 | 0.00 | 35 | 1024.4 |
| 20260501191023 | 17 | 283 | 3.2 | 17.7 | 0.00 | 0.00 | 0.00 | 35 | 976.9 |
| 20260501190522 | 17 | 288 | 8.0 | 17.7 | 0.00 | 0.00 | 0.00 | 36 | 938.2 |
| 20260501190022 | 17 | 295 | 3.2 | 17.7 | 0.00 | 0.00 | 0.00 | 37 | 809.9 |
| 20260501185522 | 17 | 8 | 8.0 | 17.7 | 0.00 | 0.00 | 0.00 | 37 | 861.0 |
| 20260501183950 | 17 | 294 | 9.7 | 19.3 | 0.00 | 0.00 | 0.00 | 34 | 976.0 |
| 20260501183449 | 17 | 281 | 6.4 | 17.7 | 0.00 | 0.00 | 0.00 | 35 | 946.7 |
| 20260501182949 | 17 | 249 | 9.7 | 17.7 | 0.00 | 0.00 | 0.00 | 35 | 893.8 |
| 20260501182448 | 17 | 202 | 0.0 | 19.3 | 0.00 | 0.00 | 0.00 | 35 | 916.1 |
| 20260501181947 | 17 | 274 | 6.4 | 24.1 | 0.00 | 0.00 | 0.00 | 36 | 952.9 |
| 20260501181446 | 17 | 262 | 11.3 | 24.1 | 0.00 | 0.00 | 0.00 | 36 | 945.0 |
| 20260501180945 | 17 | 297 | 9.7 | 17.7 | 0.00 | 0.00 | 0.00 | 34 | 955.9 |
| 20260501174856 | 17 | 222 | 4.8 | 19.3 | 0.00 | 0.00 | 0.00 | 40 | 665.4 |
| 20260501174355 | 17 | 158 | 3.2 | 19.3 | 0.00 | 0.00 | 0.00 | 41 | 612.2 |
| 20260501173854 | 17 | 107 | 4.8 | 19.3 | 0.00 | 0.00 | 0.00 | 42 | 618.1 |
| 20260501173353 | 17 | 168 | 3.2 | 19.3 | 0.00 | 0.00 | 0.00 | 43 | 719.8 |
| 20260501172337 | 16 | 354 | 0.0 | 19.3 | 0.00 | 0.00 | 0.00 | 45 | 1104.9 |